When you browse on this site, cookies collect data to enhance your experience and personalize the content and advertising you see.
Visit our Privacy Policy to learn more. By continuing to use the site, you agree to this use of cookies and data.
  • In Deutschland
  • Länderverzeichnis
  • Für 7 Tage
  • Wassertemperatur
  • Wetterkarte
  • Widgets
  • user-avatar
    Anmelden

    Stündliche Wetter Oroshaza

    Heute, 23 Februar, Sonntag

    Zeit Temperatur Niederschläge Wind Luftdruck Luftfeuchtigkeit
    00:00 +3°C° 0 mm 4 m/S 763 mmHg 66%
    01:00 +2°C° 0 mm 5 m/S 762 mmHg 66%
    02:00 +3°C° 0 mm 4 m/S 762 mmHg 66%
    03:00 +3°C° 0 mm 4 m/S 761 mmHg 67%
    04:00 +3°C° 0 mm 4 m/S 761 mmHg 67%
    05:00 +3°C° 0 mm 4 m/S 761 mmHg 67%
    06:00 +3°C° 0 mm 4 m/S 761 mmHg 67%
    07:00 +3°C° 0 mm 4 m/S 761 mmHg 67%
    08:00 +4°C° 0 mm 4 m/S 760 mmHg 65%
    09:00 +5°C° 0 mm 4 m/S 760 mmHg 63%
    10:00 +6°C° 0 mm 4 m/S 760 mmHg 61%
    11:00 +9°C° 0 mm 3 m/S 760 mmHg 62%
    12:00 +10°C° 0 mm 3 m/S 759 mmHg 64%
    13:00 +11°C° 0 mm 3 m/S 759 mmHg 66%
    14:00 +11°C° 0.1 mm 3 m/S 758 mmHg 67%
    15:00 +10°C° 0.1 mm 3 m/S 757 mmHg 69%
    16:00 +10°C° 0.1 mm 4 m/S 756 mmHg 70%
    17:00 +10°C° 0 mm 4 m/S 756 mmHg 69%
    18:00 +9°C° 0 mm 5 m/S 756 mmHg 67%
    19:00 +9°C° 0 mm 6 m/S 756 mmHg 66%
    20:00 +9°C° 0 mm 6 m/S 755 mmHg 63%
    21:00 +9°C° 0 mm 6 m/S 754 mmHg 61%
    22:00 +9°C° 0 mm 6 m/S 753 mmHg 59%
    23:00 +9°C° 0 mm 6 m/S 752 mmHg 60%

    Morgen, 24 Februar, Montag

    Zeit Temperatur Niederschläge Wind Luftdruck Luftfeuchtigkeit
    00:00 +8°C° 0 mm 6 m/S 752 mmHg 61%
    01:00 +8°C° 0 mm 7 m/S 751 mmHg 62%
    02:00 +8°C° 0.1 mm 7 m/S 751 mmHg 64%
    03:00 +8°C° 0.1 mm 7 m/S 751 mmHg 67%
    04:00 +9°C° 0.1 mm 7 m/S 751 mmHg 70%
    05:00 +7°C° 0.2 mm 8 m/S 753 mmHg 63%
    06:00 +7°C° 0.2 mm 8 m/S 754 mmHg 56%
    07:00 +6°C° 0.2 mm 9 m/S 755 mmHg 49%
    08:00 +6°C° 0 mm 9 m/S 756 mmHg 49%
    09:00 +6°C° 0 mm 9 m/S 757 mmHg 49%
    10:00 +6°C° 0 mm 9 m/S 758 mmHg 50%
    11:00 +6°C° 0 mm 9 m/S 758 mmHg 47%
    12:00 +7°C° 0 mm 8 m/S 758 mmHg 45%
    13:00 +9°C° 0 mm 7 m/S 758 mmHg 42%
    14:00 +8°C° 0 mm 6 m/S 758 mmHg 44%
    15:00 +8°C° 0 mm 5 m/S 758 mmHg 46%
    16:00 +8°C° 0 mm 5 m/S 757 mmHg 48%
    17:00 +7°C° 0 mm 4 m/S 757 mmHg 52%
    18:00 +7°C° 0 mm 3 m/S 758 mmHg 57%
    19:00 +6°C° 0 mm 2 m/S 758 mmHg 61%
    20:00 +6°C° 0 mm 2 m/S 757 mmHg 62%
    21:00 +5°C° 0 mm 2 m/S 757 mmHg 64%
    22:00 +4°C° 0 mm 3 m/S 757 mmHg 65%
    23:00 +4°C° 0 mm 3 m/S 757 mmHg 66%

    übermorgen, 25 Februar, Dienstag

    Zeit Temperatur Niederschläge Wind Luftdruck Luftfeuchtigkeit
    00:00 +3°C° 0 mm 3 m/S 756 mmHg 67%
    01:00 +3°C° 0 mm 3 m/S 756 mmHg 68%
    02:00 +3°C° 0 mm 4 m/S 755 mmHg 67%
    03:00 +3°C° 0 mm 4 m/S 755 mmHg 66%
    04:00 +2°C° 0 mm 5 m/S 754 mmHg 64%
    05:00 +2°C° 0 mm 5 m/S 753 mmHg 64%
    06:00 +2°C° 0 mm 5 m/S 753 mmHg 64%
    07:00 +3°C° 0 mm 4 m/S 753 mmHg 65%
    08:00 +4°C° 0 mm 4 m/S 752 mmHg 61%
    09:00 +6°C° 0 mm 4 m/S 752 mmHg 57%
    10:00 +8°C° 0 mm 4 m/S 751 mmHg 53%
    11:00 +10°C° 0 mm 4 m/S 751 mmHg 53%
    12:00 +12°C° 0 mm 5 m/S 750 mmHg 52%
    13:00 +13°C° 0 mm 5 m/S 749 mmHg 52%
    14:00 +13°C° 0 mm 4 m/S 749 mmHg 55%
    15:00 +13°C° 0 mm 4 m/S 748 mmHg 57%
    16:00 +14°C° 0 mm 3 m/S 748 mmHg 60%
    17:00 +13°C° 0 mm 4 m/S 748 mmHg 63%
    18:00 +12°C° 0 mm 4 m/S 748 mmHg 67%
    19:00 +11°C° 0 mm 4 m/S 747 mmHg 70%
    20:00 +10°C° 0 mm 4 m/S 747 mmHg 71%
    21:00 +10°C° 0 mm 4 m/S 747 mmHg 71%
    22:00 +10°C° 0 mm 4 m/S 746 mmHg 72%
    23:00 +10°C° 0.2 mm 4 m/S 746 mmHg 74%

    26 Februar, Mittwoch

    Zeit Temperatur Niederschläge Wind Luftdruck Luftfeuchtigkeit
    00:00 +10°C° 0.2 mm 4 m/S 745 mmHg 77%
    01:00 +9°C° 0.2 mm 5 m/S 745 mmHg 80%
    02:00 +9°C° 0.1 mm 5 m/S 744 mmHg 78%
    03:00 +8°C° 0.1 mm 5 m/S 743 mmHg 76%
    04:00 +8°C° 0.1 mm 5 m/S 742 mmHg 74%
    05:00 +8°C° 0 mm 5 m/S 742 mmHg 74%
    06:00 +8°C° 0 mm 5 m/S 741 mmHg 75%
    07:00 +8°C° 0 mm 5 m/S 741 mmHg 75%
    08:00 +8°C° 0.6 mm 5 m/S 740 mmHg 78%
    09:00 +8°C° 0.6 mm 5 m/S 740 mmHg 81%
    10:00 +8°C° 0.6 mm 5 m/S 739 mmHg 84%
    11:00 +9°C° 0.6 mm 5 m/S 739 mmHg 82%
    12:00 +10°C° 0.6 mm 4 m/S 738 mmHg 81%
    13:00 +10°C° 0.6 mm 3 m/S 738 mmHg 79%
    14:00 +10°C° 0.7 mm 3 m/S 738 mmHg 81%
    15:00 +8°C° 0.7 mm 4 m/S 737 mmHg 84%
    16:00 +8°C° 0.7 mm 4 m/S 737 mmHg 86%
    17:00 +8°C° 0.8 mm 3 m/S 737 mmHg 87%
    18:00 +7°C° 0.8 mm 3 m/S 738 mmHg 88%
    19:00 +7°C° 0.8 mm 2 m/S 738 mmHg 89%
    20:00 +7°C° 0 mm 2 m/S 739 mmHg 88%
    21:00 +6°C° 0 mm 2 m/S 739 mmHg 88%
    22:00 +6°C° 0 mm 2 m/S 740 mmHg 87%
    23:00 +6°C° 0 mm 2 m/S 740 mmHg 87%

    27 Februar, Donnerstag

    Zeit Temperatur Niederschläge Wind Luftdruck Luftfeuchtigkeit
    00:00 +5°C° 0 mm 2 m/S 740 mmHg 87%
    01:00 +5°C° 0 mm 2 m/S 740 mmHg 87%
    02:00 +4°C° 0 mm 3 m/S 740 mmHg 87%
    03:00 +4°C° 0 mm 4 m/S 741 mmHg 88%
    04:00 +3°C° 0 mm 5 m/S 741 mmHg 89%
    05:00 +3°C° 0.3 mm 5 m/S 742 mmHg 86%
    06:00 +2°C° 0.3 mm 6 m/S 742 mmHg 83%
    07:00 +2°C° 0.3 mm 6 m/S 743 mmHg 80%
    08:00 +2°C° 0 mm 7 m/S 744 mmHg 75%
    09:00 +3°C° 0 mm 7 m/S 745 mmHg 69%
    10:00 +4°C° 0 mm 7 m/S 746 mmHg 63%
    11:00 +5°C° 0 mm 7 m/S 746 mmHg 60%
    12:00 +5°C° 0 mm 7 m/S 746 mmHg 57%
    13:00 +6°C° 0 mm 8 m/S 746 mmHg 54%
    14:00 +6°C° 0 mm 7 m/S 747 mmHg 53%
    15:00 +5°C° 0 mm 7 m/S 747 mmHg 52%
    16:00 +5°C° 0 mm 7 m/S 748 mmHg 52%
    17:00 +4°C° 0 mm 7 m/S 749 mmHg 55%
    18:00 +4°C° 0 mm 6 m/S 749 mmHg 58%
    19:00 +3°C° 0 mm 6 m/S 750 mmHg 61%
    20:00 +2°C° 0 mm 5 m/S 750 mmHg 64%
    21:00 +2°C° 0 mm 5 m/S 751 mmHg 66%
    22:00 +1°C° 0 mm 4 m/S 751 mmHg 69%
    23:00 +1°C° 0 mm 4 m/S 751 mmHg 72%

    28 Februar, Freitag

    Zeit Temperatur Niederschläge Wind Luftdruck Luftfeuchtigkeit
    00:00 +1°C° 0 mm 3 m/S 751 mmHg 74%
    01:00 +2°C° 0 mm 2 m/S 752 mmHg 76%
    02:00 +1°C° 0 mm 2 m/S 752 mmHg 77%
    03:00 +1°C° 0 mm 2 m/S 752 mmHg 78%
    04:00 +1°C° 0 mm 2 m/S 752 mmHg 78%
    05:00 +1°C° 0 mm 2 m/S 752 mmHg 77%
    06:00 +2°C° 0 mm 1 m/S 753 mmHg 77%
    07:00 +2°C° 0 mm 1 m/S 753 mmHg 76%
    08:00 +4°C° 0 mm 1 m/S 753 mmHg 69%
    09:00 +4°C° 0 mm 2 m/S 754 mmHg 63%
    10:00 +5°C° 0 mm 3 m/S 754 mmHg 56%
    11:00 +7°C° 0 mm 3 m/S 754 mmHg 53%
    12:00 +8°C° 0 mm 3 m/S 754 mmHg 51%
    13:00 +8°C° 0 mm 4 m/S 754 mmHg 48%
    14:00 +9°C° 0 mm 3 m/S 754 mmHg 53%
    15:00 +9°C° 0 mm 3 m/S 753 mmHg 57%
    16:00 +9°C° 0 mm 3 m/S 753 mmHg 62%
    17:00 +8°C° 0 mm 2 m/S 754 mmHg 65%
    18:00 +8°C° 0 mm 2 m/S 754 mmHg 68%
    19:00 +7°C° 0 mm 2 m/S 754 mmHg 70%
    20:00 +7°C° 0 mm 2 m/S 754 mmHg 71%
    21:00 +6°C° 0 mm 2 m/S 754 mmHg 71%
    22:00 +5°C° 0 mm 3 m/S 754 mmHg 71%
    23:00 +5°C° 0 mm 3 m/S 754 mmHg 72%
    Mehr zeigen